Regional Weather Roundup
Issued by NWS Mt. Holly, NJ

Home | Current Version | Previous Version | Text Only | Print | Product List | Glossary On
Versions: 1 2 3 4 5 6 7 8 9 10 11 12 13 14 15 16 17 18 19 20 21 22 23 24 25 26 27 28 29 30 31 32 33 34 35 36 37 38 39 40 41 42 43 44 45 46 47 48 49 50
000
ASUS41 KPHI 090112
RWRPHI

REGIONAL WEATHER ROUNDUP
NATIONAL WEATHER SERVICE MOUNT HOLLY NJ
800 PM EST MON FEB 08 2016

NOTE:  "FAIR" INDICATES FEW OR NO CLOUDS BELOW 12,000 FEET WITH NO
SIGNIFICANT WEATHER AND/OR OBSTRUCTIONS TO VISIBILITY.

 * = STATION DOES NOT REPORT PRECIPITATION (E.G. RAIN, SNOW, ETC.)
        OR FOG.

NJZ015>026-090200-
SOUTHERN NEW JERSEY

CITY           SKY/WX    TMP DP  RH WIND       PRES   REMARKS
POMONA         CLOUDY    34  29  82 E9        29.77S WCI  27
WILDWOOD*      CLOUDY    36  28  75 E10       29.78S WCI  28
MILLVILLE      CLOUDY    35  28  75 SE12      29.76S WCI  27
WRIGHTSTOWN    CLOUDY    33  30  88 E9        29.75R WCI  25
MOUNT HOLLY    CLOUDY    34  24  67 E6        29.77S WCI  29
TRENTON        CLOUDY    34  23  64 E9        29.76R WCI  27

$$
NJZ001>014-090200-
NORTHERN NEW JERSEY

CITY           SKY/WX    TMP DP  RH WIND       PRES   REMARKS
SUSSEX         CLOUDY    30  20  66 NE8       29.77R WCI  22
ANDOVER*         N/A     31  16  54 NE7       29.75S WCI  24
MORRISTOWN     CLOUDY    32  25  74 CALM      29.78S
NEWARK         FLURRIES  31  24  75 NE10      29.79S WCI  22
TETERBORO      FLURRIES  30  21  69 NE6       29.79R WCI  24
CALDWELL       FLURRIES  31  23  72 E7        29.79R WCI  24
SOMERVILLE     CLOUDY    34  23  64 SE6       29.75S WCI  29
ALLAIRE*       CLOUDY    30  21  69 E6        29.79R WCI  24
TOMS RIVER*    CLOUDY    30  25  80 E5        29.79S WCI  25

$$
PAZ043-044-047-054-055-060>062-066>071-090200-
EASTERN PENNSYLVANIA

CITY           SKY/WX    TMP DP  RH WIND       PRES   REMARKS
PHILADELPHIA   CLOUDY    37  24  59 E9        29.77R WCI  30
NORTH PHILA    CLOUDY    36  23  59 E10       29.78S WCI  28
BLUE BELL*       N/A     34  25  69 SE6       29.75R WCI  29
DOYLESTOWN     CLOUDY    33  22  63 CALM      29.74R
QUAKERTOWN*    CLOUDY    36  25  64 SE5       29.74R WCI  32
POTTSTOWN      CLOUDY    36  24  62 VRB6      29.75R WCI  31
LANCASTER      LGT SNOW  34  31  88 SE10      29.71S FOG     WCI  26
COATESVILLE    LGT SNOW  36  32  87 VRB5      29.72S WCI  32
READING        CLOUDY    38  26  62 SE7       29.70F WCI  33
ALLENTOWN      CLOUDY    37  19  48 E7        29.73R WCI  32
MOUNT POCONO   CLOUDY    28  13  53 E7        29.66S WCI  21
HAZLETON       CLOUDY    32  21  64 SE7       29.68S WCI  26
LEHIGHTON      CLOUDY    36  19  51 E3        29.73R
WILKES BARRE   CLOUDY    35  17  47 VRB5G18   29.67S WCI  31

$$
DEZALL-MDZ008-012-015-019-020-090200-
DELAWARE AND EASTERN MARYLAND

CITY           SKY/WX    TMP DP  RH WIND       PRES   REMARKS
WILMINGTON     LGT RAIN  39  28  64 SE10      29.75S WCI  32
DOVER          LGT RAIN  36  36 100 E10       29.75R WCI  28
GEORGETOWN     MIX PCPN  36  34  92 SE5       29.77R WCI  32
EASTON         DRIZZLE   41  36  81 S6        29.77S
ABERDEEN       LGT RAIN  37  32  81 SE9       29.75S WCI  31
PATUXENT       LGT RAIN  39  33  79 SE14      29.73S WCI  31
OCEAN CITY     CLOUDY    38  33  82 SE5       29.77S WCI  34
WALLOPS ISLAND CLOUDY    39  33  79 E7        29.76F WCI  34
CAMBRIDGE      MOCLDY    37  32  81 SE10      29.74S WCI  30
SALISBURY      LGT RAIN  38  34  85 E8        29.76S WCI  32

$$
PAZ001-021-NYZ056-072-MDZ011-DCZ001-090200-
OTHER NEARBY LOCATIONS

CITY           SKY/WX    TMP DP  RH WIND       PRES   REMARKS
HARRISBURG     LGT RAIN  36  31  82 SE8       29.70S WCI  30
STATE COLLEGE  CLOUDY    36  28  75 S6        29.64S WCI  31
WILLIAMSPORT   LGT RAIN  39  27  62 MISG      29.67R
BINGHAMTON     CLOUDY    33  19  56 SE13      29.63S WCI  24
NEW YORK CITY  CLOUDY    30  22  72 N6        29.81R WCI  24
BALTIMORE      DRIZZLE   40  30  67 SE5       29.71S
WASHINGTON DC  LGT RAIN  41  33  73 S14       29.72S

$$



USA.gov is the U.S. government's official web portal to all federal, state and local government web resources and services.